NR6G-1 Weather Reports


time (UTC)temp
C
wind
direction
speed
KPH
gust
KPH
rain 1hr
cm
rain 24hr
cm
rain mn
cm
humidity
%
barometer
mb
20260506151600 15 170 1.6 6.4 0.00 0.00 0.00 70 1018.6
20260506150040 15 194 1.6 4.8 0.00 0.00 0.00 72 1018.6
20260506144535 14 114 0.0 4.8 0.00 0.00 0.00 73 1018.5
20260506143042 13 160 1.6 6.4 0.00 0.00 0.00 74 1018.4
20260506141526 13 101 1.6 4.8 0.00 0.00 0.00 75 1018.3
20260506140025 12 96 0.0 4.8 0.00 0.00 0.00 78 1018.1
20260506134518 11 37 0.0 3.2 0.00 0.00 0.00 82 1017.9
20260506133016 10 73 0.0 1.6 0.00 0.00 0.00 86 1017.8
20260506131515 10 73 0.0 1.6 0.00 0.00 0.00 86 1017.7
20260506130008 10 73 0.0 1.6 0.00 0.00 0.00 85 1017.5
20260506124506 10 73 0.0 0.0 0.00 0.00 0.00 85 1017.3
20260506123006 10 73 0.0 1.6 0.00 0.00 0.00 85 1017.3
20260506121505 10 73 0.0 1.6 0.00 0.00 0.00 84 1017.3
20260506120002 11 73 0.0 1.6 0.00 0.00 0.00 83 1017.2
20260506114500 11 73 0.0 0.0 0.00 0.00 0.00 83 1017.2
20260506113106 11 73 0.0 3.2 0.00 0.00 0.00 82 1017.0
20260506111555 11 73 0.0 1.6 0.00 0.00 0.00 82 1017.0
20260506110101 11 73 0.0 1.6 0.00 0.00 0.00 81 1016.8
20260506104605 11 73 0.0 1.6 0.00 0.00 0.00 82 1016.6
20260506103050 11 73 0.0 0.0 0.00 0.00 0.00 81 1016.5
20260506101555 12 73 0.0 1.6 0.00 0.00 0.00 80 1016.3
20260506100046 12 73 0.0 1.6 0.00 0.00 0.00 80 1016.3
20260506094554 12 73 0.0 1.6 0.00 0.00 0.00 79 1016.4
20260506093047 12 73 0.0 3.2 0.00 0.00 0.00 78 1016.4
20260506091543 12 71 1.6 4.8 0.00 0.00 0.00 78 1016.4
20260506090043 12 317 0.0 3.2 0.00 0.00 0.00 77 1016.5
20260506084542 12 305 0.0 4.8 0.00 0.00 0.00 78 1016.4
20260506083040 12 305 0.0 3.2 0.00 0.00 0.00 77 1016.3
20260506081537 12 305 0.0 1.6 0.00 0.00 0.00 77 1016.3
20260506073042 13 305 0.0 0.0 0.00 0.00 0.00 76 1016.2
20260506071530 13 305 0.0 0.0 0.00 0.00 0.00 76 1016.0
20260506061522 14 304 0.0 1.6 0.00 0.00 0.00 74 1015.4
20260506044513 16 304 0.0 4.8 0.00 0.00 0.00 66 1014.5
20260506043011 16 305 1.6 6.4 0.00 0.00 0.00 64 1014.4
20260506041522 17 308 1.6 4.8 0.00 0.00 0.00 62 1014.1
20260506040007 17 308 1.6 3.2 0.00 0.00 0.00 60 1014.0
20260506034509 17 308 1.6 3.2 0.00 0.00 0.00 58 1013.9
20260506033006 18 311 1.6 6.4 0.00 0.00 0.00 55 1013.7
20260506031512 18 230 0.0 1.6 0.00 0.00 0.00 53 1013.4
20260506030009 19 123 0.0 3.2 0.00 0.00 0.00 51 1013.2
20260506024506 20 17 1.6 4.8 0.00 0.00 0.00 50 1013.0
20260506023005 21 103 0.0 3.2 0.00 0.00 0.00 48 1012.9
20260506021506 21 101 4.8 9.7 0.00 0.00 0.00 47 1012.7
20260506020004 21 39 0.0 9.7 0.00 0.00 0.00 46 1012.6
20260506014504 22 76 3.2 9.7 0.00 0.00 0.00 46 1012.5
20260506013002 21 63 1.6 9.7 0.00 0.00 0.00 42 1012.4
20260506011501 21 325 1.6 8.0 0.00 0.00 0.00 42 1012.3
20260506010105 21 76 4.8 9.7 0.00 0.00 0.00 45 1012.3
20260506004600 20 27 3.2 8.0 0.00 0.00 0.00 46 1012.3
20260506003059 20 313 1.6 8.0 0.00 0.00 0.00 45 1012.2
20260506001618 20 329 3.2 8.0 0.00 0.00 0.00 46 1012.3
20260506000100 21 300 6.4 14.5 0.00 0.00 0.00 45 1012.4
20260505234600 21 296 3.2 12.9 0.00 0.00 0.00 46 1012.4
20260505233058 21 293 6.4 16.1 0.00 0.00 0.00 43 1012.6
20260505231557 21 297 1.6 12.9 0.00 0.00 0.00 45 1012.8
20260505230112 22 43 3.2 12.9 0.00 0.00 0.00 43 1012.7
20260505224551 21 323 3.2 14.5 0.00 0.00 0.00 42 1012.8
20260505223056 21 332 4.8 12.9 0.00 0.00 0.00 47 1012.9
20260505221553 20 40 4.8 12.9 0.00 0.00 0.00 46 1013.1
20260505220050 21 11 3.2 14.5 0.00 0.00 0.00 49 1013.3
20260505214558 20 290 3.2 12.9 0.00 0.00 0.00 50 1013.2
20260505213053 19 261 4.8 12.9 0.00 0.00 0.00 52 1013.4
20260505211540 19 311 3.2 16.1 0.00 0.00 0.00 52 1013.5
20260505210038 19 254 6.4 16.1 0.00 0.00 0.00 50 1013.7
20260505204538 18 277 1.6 14.5 0.00 0.00 0.00 53 1013.7
20260505203043 18 276 8.0 16.1 0.00 0.00 0.00 53 1013.7
20260505201546 18 270 6.4 12.9 0.00 0.00 0.00 55 1013.8
20260505200031 17 29 4.8 12.9 0.00 0.00 0.00 57 1013.8
20260505194528 17 298 6.4 14.5 0.00 0.00 0.00 59 1014.0
20260505193041 17 322 4.8 17.7 0.00 0.00 0.00 62 1013.9
20260505191524 16 266 6.4 17.7 0.00 0.00 0.00 62 1013.9
20260505190030 16 265 8.0 17.7 0.00 0.00 0.00 63 1014.1
20260505184525 16 305 8.0 17.7 0.00 0.00 0.00 64 1014.0
20260505183031 16 300 8.0 16.1 0.00 0.00 0.00 65 1013.9
20260505181521 15 263 8.0 17.7 0.00 0.00 0.00 66 1014.0
20260505180029 15 291 6.4 17.7 0.00 0.00 0.00 67 1013.8
20260505174510 15 321 6.4 17.7 0.00 0.00 0.00 69 1013.8
20260505173005 15 314 3.2 14.5 0.00 0.00 0.00 70 1013.7
20260505171506 14 300 8.0 16.1 0.00 0.00 0.00 72 1013.6
20260505170002 14 315 4.8 19.3 0.00 0.00 0.00 73 1013.5
20260505164600 14 307 8.0 17.7 0.00 0.00 0.00 73 1013.5
20260505163107 14 341 6.4 16.1 0.00 0.00 0.00 75 1013.4
20260505161554 13 313 6.4 17.7 0.00 0.00 0.00 76 1013.4
20260505153057 12 344 4.8 9.7 0.00 0.00 0.00 82 1013.2